Hourly Weather Roundup
Issued by NWS Central Illinois

Home | Current Version | Previous Version | Text Only | Print | Product List | Glossary On
Versions: 1 2 3 4 5 6 7 8 9 10 11 12 13 14 15 16 17 18 19 20 21 22 23 24 25 26 27 28 29 30 31 32 33 34 35 36 37 38 39 40 41 42 43 44 45 46 47 48 49 50
383
NZUS43 KILX 190610
HWRILX

Area Weather Roundup
National Weather Service Lincoln IL
100 AM CDT TUE SEP 19 2017

NOTE:  "FAIR" indicates few or no clouds below 12,000 feet, with
       no sigificant weather and/or obstructions to visibility.


CITY           SKY/WX    TMP DP  RH WIND       PRES   REMARKS
Bloomington    CLOUDY    66  65  96 N6        29.96F
6HR MIN TEMP:  66; 6HR MAX TEMP:  76; 6HR PCP:  1.42;

Champaign      LGT RAIN  70  68  93 SW3       29.95S FOG
6HR MIN TEMP:  70; 6HR MAX TEMP:  79; 6HR PCP:  0.57;

Danville       HVY RAIN  70  69  98 SW10      29.93R
6HR MIN TEMP:  70; 6HR MAX TEMP:  75; 6HR PCP:  0.23;

Decatur        CLOUDY    70  70 100 CALM      29.94F
6HR MIN TEMP:  69; 6HR MAX TEMP:  80; 6HR PCP:  0.39;

Effingham      RAIN      71  71 100 E6        29.95F
6HR MIN TEMP:  71; 6HR MAX TEMP:  75; 6HR PCP:  0.10;

Flora          TSTM      71  69  93 NW17G29   30.00R
6HR MIN TEMP:  71; 6HR MAX TEMP:  78; 6HR PCP:  0.60;

Galesburg      CLOUDY    66  66 100 NW3       29.95S FOG
6HR MIN TEMP:  66; 6HR MAX TEMP:  73; 6HR PCP:  0.64;

Jacksonville   FOG       67  66  99 SW3       29.94S VSB<1/4
6HR MIN TEMP:  65; 6HR MAX TEMP:  71; 6HR PCP:  0.05;

Lacon          CLOUDY    64  64 100 CALM      29.94S
6HR MIN TEMP:  63; 6HR MAX TEMP:  71; 6HR PCP:  0.23;

Lawrenceville  CLOUDY    70  69  97 CALM      29.96F FOG
6HR MIN TEMP:  70; 6HR MAX TEMP:  73; 6HR PCP:  0.03;

Litchfield     MOCLDY    67  67  99 CALM      29.94S FOG
6HR MIN TEMP:  67; 6HR MAX TEMP:  77; 6HR PCP:  0.17;

$$


CITY           SKY/WX    TMP DP  RH WIND       PRES   REMARKS
Lincoln        CLOUDY    69  69 100 CALM      29.94S
6HR MIN TEMP:  68; 6HR MAX TEMP:  80; 6HR PCP:  0.76;

Macomb         CLOUDY    67  67  99 CALM      29.96F FOG
6HR MIN TEMP:  67; 6HR MAX TEMP:  73; 6HR PCP:  0.14;

Mattoon        LGT RAIN  69  69 100 S3        29.94F
6HR MIN TEMP:  69; 6HR MAX TEMP:  78; 6HR PCP:  0.09;

Mt Carmel AP   CLOUDY    69  68  96 CALM      29.96R FOG
6HR MIN TEMP:  69; 6HR MAX TEMP:  72;

Olney-Noble AP CLOUDY    69  66  93 CALM      29.96S THUNDER FOG
Paris AP       CLOUDY    70  69  98 S3        29.96R
6HR MIN TEMP:  70; 6HR MAX TEMP:  73;

Peoria         CLOUDY    68  68 100 CALM      29.94F
6HR MIN TEMP:  68; 6HR MAX TEMP:  78; 6HR PCP:  0.48;

Pontiac        LGT RAIN  64  63  98 CALM      29.95F
6HR MIN TEMP:  64; 6HR MAX TEMP:  74; 6HR PCP:  0.28;

Rantoul        DRIZZLE   70  69  98 CALM      29.95S
6HR MIN TEMP:  69; 6HR MAX TEMP:  79; 6HR PCP:  1.76;

Robinson       MOCLDY    68  68 100 CALM      29.96F FOG
6HR MIN TEMP:  68; 6HR MAX TEMP:  73; 6HR PCP:  0.09;

Springfield    CLOUDY    68  68 100 CALM      29.94F FOG
6HR MIN TEMP:  68; 6HR MAX TEMP:  81; 6HR PCP:  0.01;

Taylorville    FOG       68  68 100 CALM      29.95S VSB 1
6HR MIN TEMP:  68; 6HR MAX TEMP:  73; 6HR PCP:  0.22;

$$

...REGIONAL REPORTS...


CITY           SKY/WX    TMP DP  RH WIND       PRES   REMARKS
Chicago O`Hare CLOUDY    67  61  81 NE8       29.96F
Kankakee       RAIN      64  63  97 W8        29.97F
Moline         MOCLDY    67  64  90 E7        29.94S FOG
Mount Sterling FOG       64  64 100 CALM      29.93F VSB 1/4
Mount Vernon     N/A     72  70  94 W3        29.96S THUNDER
Pittsfield     FOG       65  65 100 CALM      29.95F VSB 1/4
Quincy         FOG       67  66  97 S5        29.94F VSB 1/2
Rockford       CLOUDY    63  57  81 E6        29.98F
$$


CITY           SKY/WX    TMP DP  RH WIND       PRES   REMARKS
Burlington     FOG       64  64 100 CALM      29.94S VSB 1
Cedar Rapids   FOG       60  60 100 CALM      29.94S VSB 1/4
Des Moines     FOG       64  64 100 SE6       29.93S VSB 1/8
Kirksville     FOG       64  63  96 CALM      29.96S VSB 1/4
Ottumwa        MOCLDY    63  63 100 E5        29.94F
St Louis       CLOUDY    70  69  97 W5        29.95R
$$


CITY           SKY/WX    TMP DP  RH WIND       PRES   REMARKS
Terre Haute    CLOUDY    70  67  90 S3        29.96F
Evansville     CLOUDY    68  66  93 CALM      29.96S
Indianapolis   CLOUDY    71  68  90 S5        29.96F
Lafayette      CLOUDY    70  67  90 S5        29.94F
Madison        PTCLDY    58  54  86 N5        29.99F
Milwaukee      CLOUDY    66  61  84 CALM      29.99S
$$






USA.gov is the U.S. government's official web portal to all federal, state and local government web resources and services.